Location: Centerville
(32.8776°N, 96.6203°W)
Time: 02:25:38
(UTC+00:00)

Cosmos 2219 Rocket - Visible Passes

Search period start: 23 October 2021 00:00
Search period end: 02 November 2021 00:00
Orbit: 828 x 846 km, 71.0° (Epoch: 22 October)

Date Brightness Start Highest point End Pass type
(mag) Time Alt. Az. Time Alt. Az. Time Alt. Az.
23 Oct 3.2 01:28:39 10° S 01:31:41 29° SSE 01:31:41 29° SSE visible
23 Oct 2.4 12:09:54 10° NNW 12:15:35 81° ENE 12:21:15 10° SSE visible
24 Oct 2.6 01:12:22 10° S 01:17:23 38° ESE 01:17:23 38° ESE visible
24 Oct 4.5 02:57:01 10° WSW 02:59:13 19° W 02:59:13 19° W visible
24 Oct 2.5 11:53:30 10° NNW 11:59:11 74° ENE 12:04:50 10° SSE visible
25 Oct 2.7 00:56:06 10° SSE 01:01:05 35° ESE 01:03:04 27° ENE visible
25 Oct 4.0 02:40:25 10° WSW 02:44:54 26° WNW 02:44:54 26° WNW visible
25 Oct 2.6 11:37:07 10° NNW 11:42:46 68° ENE 11:48:23 10° SSE visible
26 Oct 2.8 00:39:50 10° SSE 00:44:42 32° ESE 00:48:40 14° NE visible
26 Oct 3.9 02:23:49 10° WSW 02:28:33 28° WNW 02:30:29 23° NNW visible
26 Oct 2.7 11:20:44 10° NNW 11:26:20 62° ENE 11:31:56 10° SSE visible
27 Oct 3.0 00:23:36 10° SSE 00:28:19 29° ESE 00:33:04 10° NE visible
27 Oct 3.8 02:07:14 10° WSW 02:12:07 30° WNW 02:15:54 15° N visible
27 Oct 2.8 11:04:21 10° NNW 11:09:56 57° ENE 11:15:29 10° SE visible
28 Oct 3.1 00:07:22 10° SSE 00:11:56 27° ESE 00:16:32 10° NE visible
28 Oct 3.7 01:50:41 10° SW 01:55:40 33° WNW 02:00:42 10° N visible
28 Oct 2.9 10:47:58 10° N 10:53:30 52° ENE 10:59:00 10° SE visible
29 Oct 3.6 01:34:08 10° SW 01:39:13 36° WNW 01:44:23 10° N visible
29 Oct 3.1 10:32:04 12° N 10:37:05 47° ENE 10:42:31 10° SE visible
29 Oct 3.5 12:16:47 10° WNW 12:20:34 19° W 12:24:21 10° SW visible
30 Oct 3.5 01:17:37 10° SW 01:22:48 39° WNW 01:28:02 10° N visible
30 Oct 3.2 10:17:44 25° N 10:20:39 43° ENE 10:26:02 10° SE visible
30 Oct 3.4 12:00:09 10° NW 12:04:11 20° W 12:08:14 10° SSW visible
31 Oct 3.3 01:01:06 10° SW 01:06:22 43° WNW 01:11:42 10° N visible
31 Oct 3.3 10:03:26 38° NE 10:04:14 40° ENE 10:09:31 10° SE visible
31 Oct 3.3 11:45:16 17° WNW 11:47:50 22° W 11:52:06 10° SSW visible
01 Nov 3.2 00:44:36 10° SW 00:49:57 46° WNW 00:55:20 10° N visible
01 Nov 3.7 09:49:07 32° E 09:49:07 32° E 09:52:59 10° SE visible
01 Nov 3.2 11:30:57 24° W 11:31:27 24° WSW 11:35:55 10° SSW visible
